This is the latest recevied weather packets stored in our database for station/object WA4ORT. If no packets are shown the sender has not sent any weather packets the latest 10 day(s).
| Time | Temp. | Humidity | Pressure | Rain* | Wind** | Luminosity | Snow |
|---|---|---|---|---|---|---|---|
| 1788055035 | 26.11° C | - | - | 0 mm | 0.45 m/s, 98° | - | - |
| 1788054141 | 26.11° C | - | - | 0 mm | 0 m/s | - | - |
| 1788053243 | 26.11° C | - | - | 0 mm | 0.89 m/s, 135° | - | - |
| 1788052349 | 26.11° C | - | - | 0 mm | 0.89 m/s, 110° | - | - |
| 1788051455 | 26.11° C | - | - | 0 mm | 0 m/s | - | - |
| 1788050557 | 26.11° C | - | - | 0 mm | 0 m/s | - | - |
| 1788049663 | 26.11° C | - | - | 0 mm | 0 m/s | - | - |
| 1788048768 | 26.67° C | - | - | 0 mm | 0 m/s | - | - |
| 1788047870 | 27.22° C | - | - | 0 mm | 0 m/s | - | - |
| 1788046976 | 27.22° C | - | - | 0 mm | 0.89 m/s, 89° | - | - |
| 1788046082 | 27.78° C | - | - | 0 mm | 0.45 m/s, 53° | - | - |
| 1788045184 | 28.33° C | - | - | 0 mm | 0.89 m/s, 125° | - | - |
| 1788044288 | 28.33° C | - | - | 0 mm | 0 m/s | - | - |
| 1788043395 | 28.33° C | - | - | 0 mm | 0 m/s | - | - |
| 1788042497 | 28.89° C | - | - | 0 mm | 1.34 m/s, 149° | - | - |
| 1788041603 | 28.33° C | - | - | 0 mm | 0.89 m/s, 108° | - | - |
| 1788040709 | 28.33° C | - | - | 0 mm | 0.89 m/s, 138° | - | - |
| 1788039810 | 28.33° C | - | - | 0 mm | 0.45 m/s, 155° | - | - |
| 1788038916 | 28.33° C | - | - | 0 mm | 0.45 m/s, 65° | - | - |
| 1788038022 | 28.89° C | - | - | 0 mm | 0.45 m/s, 136° | - | - |
| 1788037124 | 28.89° C | - | - | 0 mm | 1.34 m/s, 339° | - | - |
| 1788036230 | 30° C | - | - | 0 mm | 1.34 m/s, 10° | - | - |
| 1788035335 | 28.89° C | - | - | 0 mm | 1.34 m/s, 90° | - | - |
| 1788034437 | 29.44° C | - | - | 0 mm | 1.79 m/s, 75° | - | - |
| 1788033543 | 29.44° C | - | - | 0 mm | 0.89 m/s, 28° | - | - |
* Rain latest hour (hover to see other rain measurements)
** Current wind speed in m/s (hover to see current wind gust speed)